Regional Weather Roundup
Issued by NWS

Home | Current Version | Previous Version | Text Only | Print | Product List | Glossary Off
Versions: 1 2 3 4 5 6 7 8 9 10 11 12 13 14 15 16 17 18 19 20 21 22 23 24 25 26 27 28 29 30 31 32 33 34 35 36 37 38 39 40 41 42 43 44 45 46 47 48 49 50

000
ASUS43 KDMX 210606
RWRIA

WEATHER ROUNDUP FOR IOWA
NATIONAL WEATHER SERVICE DES MOINES IA
1200 AM CST SAT JAN 21 2017

NOTE: "FAIR" INDICATES FEW OR NO CLOUDS BELOW 12,000 FEET WITH NO
SIGNIFICANT WEATHER AND/OR OBSTRUCTIONS TO VISIBILITY.

* - THESE STATIONS ARE NOT NWS STATIONS...THUS NOT UNDER NWS
QUALITY CONTROL.  THEY ALSO DO NOT REPORT WEATHER SUCH
AS PRECIPITATION OR FOG.

IAZ001>003-012>014-020>022-031>034-043>046-210700-
   NORTHWEST IOWA

CITY           SKY/WX    TMP DP  RH WIND       PRES   REMARKS
CARROLL *      FOG       36  36 100 E5        29.42F VSB<1/4 WCI  32
CHEROKEE *     DRIZZLE   36  36 100 E3        29.42F
DENISON *      FOG       37  37 100 E5        29.39F VSB 1/2 WCI  34
LE MARS *      CLOUDY    37  37 100 SE7       29.41F WCI  32
ORANGE CITY *  CLOUDY    36  36 100 SE3       29.41F FOG
SHELDON *      CLOUDY    36  36 100 E10       29.40F FOG     WCI  28
SIOUX CITY     CLOUDY    39  39 100 SE6       29.40F FOG     WCI  35
6HR MIN TEMP:  39; 6HR MAX TEMP:  41; 6HR PCP:  0.01;

SPENCER        CLOUDY    35  35 100 E8        29.43F FOG     WCI  29
6HR MIN TEMP:  35; 6HR MAX TEMP:  37; 6HR PCP:  0.01;

STORM LAKE *   FOG       34  34 100 SE9       29.42F VSB 1/2 WCI  26
$$

IAZ055>058-069>071-079>083-090>094-210700-
   SOUTHWEST IOWA

CITY           SKY/WX    TMP DP  RH WIND       PRES   REMARKS
ATLANTIC *     CLOUDY    41  41 100 E5        29.41F FOG
AUDUBON *      DRIZZLE   37  36  93 CALM      29.42F
CLARINDA *     CLOUDY    43  43 100 S5        29.43F
COUNCIL BLFS * FOG       39  39 100 SE6       29.40F VSB 1/4 WCI  35
CRESTON *      LGT RAIN  43  43 100 W6        29.44R
HARLAN  *      FOG       39  39 100 CALM      29.44F VSB 1/4
LAMONI         FOG       46  46 100 S10       29.43F VSB 1/2
6HR MIN TEMP:  43; 6HR MAX TEMP:  46; 6HR PCP:  0.03;

RED OAK *      LGT RAIN  41  41 100 CALM      29.41F
SHENANDOAH *   FOG       41  41 100 CALM      29.43R VSB 3/4
$$

IAZ047>049-059>061-072>074-084-210700-
   CENTRAL IOWA

CITY           SKY/WX    TMP DP  RH WIND       PRES   REMARKS
AMES           FOG       39  39 100 E7        29.44F VSB 1/2 WCI  34
6HR MIN TEMP:  37; 6HR MAX TEMP:  39; 6HR PCP:  0.04;

ANKENY *       FOG       39  39 100 E5        29.44F VSB 1/4
BOONE *        LGT RAIN  37  37 100 E8        29.43F VSB 1/4 WCI  31
CHARITON *     FOG       43  43 100 SE10      29.44S VSB<1/4
DES MOINES     LGT RAIN  42  41  96 SE7       29.43F VSB 1/2
6HR MIN TEMP:  40; 6HR MAX TEMP:  42; 6HR PCP:  0.05;

GRINNELL*      FOG       39  38  99 E8        29.47F VSB 1/4 WCI  33
KNOXVILLE *    FOG       41  41 100 SE9       29.43F VSB<1/4
MARSHALLTOWN   FOG       37  37 100 E10       29.45F VSB 1/2 WCI  30
6HR MIN TEMP:  36; 6HR MAX TEMP:  38; 6HR PCP:  0.02;

NEWTON *       FOG       41  39  93 E13       29.44F VSB 1/4
PELLA *        SNOW      40  40  99 SE8       29.47S VSB 1/4 WCI  35
PERRY *        RAIN      38  38  97 E6        29.43F VSB 1/2 WCI  34
$$

IAZ004>006-015-016-023>025-035-036-210700-
   NORTH CENTRAL IOWA

CITY           SKY/WX    TMP DP  RH WIND       PRES   REMARKS
ALGONA *       CLOUDY    36  36 100 E9        29.45F FOG     WCI  29
CLARION *      FOG       36  36 100 E12       29.45F VSB 1   WCI  27
ESTHERVILLE    FOG       33  33 100 SE6       29.45F VSB 1/4 WCI  28
6HR MIN TEMP:  33; 6HR MAX TEMP:  34;

FORT DODGE *   CLOUDY    36  34  93 E8        29.45F WCI  29
MASON CITY     FOG       34  34 100 SE8       29.49F VSB 1/4 WCI  27
6HR MIN TEMP:  34; 6HR MAX TEMP:  34;

FOREST CITY *  FOG       34  34 100 E7        29.47F VSB 1/4 WCI  28
WEBSTER CITY * MIX PCPN  37 N/A N/A E10       29.42F VSB 1/2 WCI  30
IOWA FALLS *   SNOW      37  36  98 E7        29.47F VSB 1/4 WCI  31
$$

IAZ007>011-017>019-026>030-037>042-050>054-066-210700-
   NORTHEAST IOWA

CITY           SKY/WX    TMP DP  RH WIND       PRES   REMARKS
CEDAR RAPIDS   FOG       38  38 100 E8        29.49F VSB 1/4 WCI  32
6HR MIN TEMP:  38; 6HR MAX TEMP:  39; 6HR PCP:  0.01;

CHARLES CITY * FOG       36  36 100 E9        29.50F VSB<1/4 WCI  29
CLINTON *      LGT RAIN  40  40 100 E8        29.55F VSB 1/4 WCI  34
DECORAH *      FOG       36  36 100 E6        29.52F VSB 1/4 WCI  31
DUBUQUE        FOG       37  37 100 NE5       29.54F VSB 1/4 WCI  33
6HR MIN TEMP:  36; 6HR MAX TEMP:  38; 6HR PCP:  0.01;

MONTICELLO *   FOG       39  39 100 E10       29.52F VSB 1/4 WCI  32
OELWEIN *      MIX PCPN  36  36 100 E7        29.51F VSB 1/2 WCI  30
WATERLOO       FOG       36  35  96 E7        29.49F VSB 1/2 WCI  30
6HR MIN TEMP:  35; 6HR MAX TEMP:  37; 6HR PCP: TRACE;

$$

IAZ064-065-067-068-078-210700-
   EAST CENTRAL IOWA

CITY           SKY/WX    TMP DP  RH WIND       PRES   REMARKS
DAVENPORT      FOG       41  41 100 E9        29.53F VSB 1/4
6HR MIN TEMP:  41; 6HR MAX TEMP:  42;

IOWA CITY      FOG       42  42 100 E5        29.51F VSB 1/4
6HR MIN TEMP:  42; 6HR MAX TEMP:  43; 6HR PCP: TRACE;

MUSCATINE *    FOG       43  43 100 E7        29.51F VSB 1/4
QUAD CITIES    FOG       42  40  92 E7        29.53F VSB 1/4
6HR MIN TEMP:  41; 6HR MAX TEMP:  44;

$$

IAZ062-063-075>077-085>089-095>099-210700-
   SOUTHEAST IOWA

CITY           SKY/WX    TMP DP  RH WIND       PRES   REMARKS
BURLINGTON     CLOUDY    47  47 100 SE10      29.50F FOG
6HR MIN TEMP:  44; 6HR MAX TEMP:  47; 6HR PCP:  0.08;

FAIRFIELD *    FOG       45  45 100 SE9       29.47F VSB<1/4
FORT MADISON * CLOUDY    48  48 100 SE10      29.50F FOG
KEOKUK *       CLOUDY    46 N/A N/A SE7       29.49F FOG
OSKALOOSA *    LGT RAIN  41  41  99 SE10      29.47F VSB 1/4
OTTUMWA        FOG       44  42  93 SE8       29.46F VSB 1/4
6HR MIN TEMP:  41; 6HR MAX TEMP:  44; 6HR PCP:  0.02;

WASHINGTON *   FOG       43  43 100 E9        29.50F VSB 1/4
$$

ABBREVIATIONS USED IN REMARKS
   TC - TEMPERATURES IN CELSIUS
  WCI - WIND CHILL INDEX
   HX - HEAT INDEX
  VSB - VISIBILITY
$$





USA.gov is the U.S. government's official web portal to all federal, state and local government web resources and services.